Date String (YYYY-MM-DD hh:mm:ss) UTC,Instrument flags,Ambient pressure (hPa),Sample flow (lpm),Bypass flow (lpm),Sample temperature (°C),Ambient temperature (°C),ASC tube jacket temperature (°C),LED temperature (°C),Box temperature (°C),Sample RH (%),Span deviation,Mass concentration (μg/m³),Mass concentration (μg/m³),Mass concentration (μg/m³)
DateTimeUTC,F1_M11,P_M11,Q1_M11,Q2_M11,T1_M11,T2_M11,T3_M11,T4_M11,T5_M11,U1_M11,ZSPAN_M11,X0_M11,X2_M11,X1_M11
2022-07-30 15:00:00,,0830.1,4.99,0.00,29.8,28.5,00.0,38.6,31.7,28.3,0000.0,0009.91,0005.20,0004.85
2022-07-30 15:01:00,,0830.1,5.00,0.00,29.8,28.6,00.0,38.6,31.7,27.7,0000.0,0009.95,0005.18,0004.85
2022-07-30 15:02:00,,0830.1,5.00,0.00,29.8,28.6,00.0,38.6,31.7,28.2,0000.0,0010.04,0005.18,0004.84
2022-07-30 15:03:00,,0830.1,4.99,0.00,29.8,28.7,00.0,38.6,31.7,27.8,0000.0,0010.00,0005.16,0004.82
2022-07-30 15:04:00,,0830.1,5.01,0.00,29.8,28.8,00.0,38.6,31.7,27.8,0000.0,0010.06,0005.17,0004.81
2022-07-30 15:05:00,,0830.1,4.99,0.00,29.9,28.8,00.0,38.6,31.8,27.8,0000.0,0010.21,0005.20,0004.80
2022-07-30 15:06:00,,0830.1,5.01,0.00,29.9,28.9,00.0,38.7,31.8,27.2,0000.0,0010.09,0005.18,0004.79
2022-07-30 15:07:00,,0830.1,4.99,0.00,29.9,28.9,00.0,38.7,31.9,28.0,0000.0,0010.08,0005.17,0004.79
2022-07-30 15:08:00,,0830.1,5.01,0.00,29.9,28.9,00.0,38.7,31.9,28.2,0000.0,0010.34,0005.15,0004.79
2022-07-30 15:09:00,,0830.1,4.99,0.00,29.9,28.3,00.0,38.7,31.7,28.2,0000.0,0010.44,0005.14,0004.78
2022-07-30 15:10:00,,0830.1,5.01,0.00,29.9,27.7,00.0,38.6,31.6,28.0,0000.0,0010.92,0005.11,0004.78
2022-07-30 15:11:00,,0830.1,5.00,0.00,29.8,27.5,00.0,38.6,31.5,28.9,0000.0,0010.60,0005.09,0004.77
2022-07-30 15:12:00,,0830.1,4.99,0.00,29.8,27.6,00.0,38.6,31.5,28.6,0000.0,0010.26,0005.13,0004.76
2022-07-30 15:13:00,,0830.1,5.01,0.00,29.7,27.7,00.0,38.6,31.4,28.1,0000.0,0009.96,0005.19,0004.78
2022-07-30 15:14:00,,0830.1,5.00,0.00,29.7,27.8,00.0,38.5,31.4,28.0,0000.0,0010.21,0005.32,0004.81
2022-07-30 15:15:00,,0830.2,5.01,0.00,29.7,27.9,00.0,38.5,31.5,28.1,0000.0,0010.45,0005.40,0004.82
2022-07-30 15:16:00,,0830.1,5.01,0.00,29.7,28.1,00.0,38.5,31.5,28.5,0000.0,0010.39,0005.39,0004.82
2022-07-30 15:17:00,,0830.1,4.99,0.00,29.7,28.2,00.0,38.5,31.5,28.6,0000.0,0010.45,0005.46,0004.84
2022-07-30 15:18:00,,0830.1,4.99,0.00,29.7,28.3,00.0,38.5,31.6,29.4,0000.0,0010.85,0005.53,0004.85
2022-07-30 15:19:00,,0830.1,5.01,0.00,29.7,28.4,00.0,38.5,31.6,29.5,0000.0,0011.15,0005.61,0004.84
2022-07-30 15:20:00,,0830.1,5.01,0.00,29.7,28.5,00.0,38.5,31.6,30.1,0000.0,0010.86,0005.63,0004.85
2022-07-30 15:21:00,,0830.1,4.99,0.00,29.8,28.6,00.0,38.6,31.7,29.6,0000.0,0010.68,0005.62,0004.86
2022-07-30 15:22:00,,0830.1,4.99,0.00,29.8,28.7,00.0,38.6,31.7,28.6,0000.0,0010.63,0005.61,0004.86
2022-07-30 15:23:00,,0830.1,5.01,0.00,29.8,28.7,00.0,38.6,31.7,28.9,0000.0,0010.25,0005.55,0004.84
2022-07-30 15:24:00,,0830.1,4.99,0.00,29.8,28.8,00.0,38.6,31.8,28.9,0000.0,0010.12,0005.50,0004.84
2022-07-30 15:25:00,,0830.1,5.01,0.00,29.9,28.8,00.0,38.6,31.8,27.9,0000.0,0009.90,0005.40,0004.82
2022-07-30 15:26:00,,0830.0,4.98,0.00,29.9,28.3,00.0,38.6,31.7,27.8,0000.0,0009.68,0005.34,0004.82
2022-07-30 15:27:00,,0830.1,5.01,0.00,29.8,27.7,00.0,38.6,31.6,28.1,0000.0,0009.64,0005.34,0004.83
2022-07-30 15:28:00,,0830.1,4.99,0.00,29.8,27.5,00.0,38.5,31.4,28.7,0000.0,0009.62,0005.30,0004.82
2022-07-30 15:29:00,,0830.1,4.99,0.00,29.7,27.5,00.0,38.5,31.4,29.0,0000.0,0009.28,0005.26,0004.82
2022-07-30 15:30:00,,0830.1,5.00,0.00,29.6,27.6,00.0,38.5,31.4,28.7,0000.0,0008.97,0005.21,0004.83
2022-07-30 15:31:00,,0830.1,5.00,0.00,29.6,27.8,00.0,38.5,31.4,28.9,0000.0,0008.99,0005.21,0004.83
2022-07-30 15:32:00,,0830.1,5.00,0.00,29.6,27.9,00.0,38.5,31.4,28.8,0000.0,0008.26,0005.23,0004.82
2022-07-30 15:33:00,,0830.1,5.01,0.00,29.6,28.1,00.0,38.5,31.5,30.1,0000.0,0009.21,0005.25,0004.82
2022-07-30 15:34:00,,0830.1,5.01,0.00,29.6,28.2,00.0,38.5,31.5,29.9,0000.0,0009.38,0005.28,0004.85
2022-07-30 15:35:00,,0830.1,4.99,0.00,29.7,28.3,00.0,38.5,31.6,30.0,0000.0,0009.41,0005.30,0004.87
2022-07-30 15:36:00,,0830.1,5.01,0.00,29.7,28.4,00.0,38.5,31.6,29.7,0000.0,0009.41,0005.32,0004.88
2022-07-30 15:37:00,,0830.1,4.99,0.00,29.7,28.5,00.0,38.5,31.7,28.9,0000.0,0009.39,0005.32,0004.91
2022-07-30 15:38:00,,0830.1,5.00,0.00,29.7,28.6,00.0,38.5,31.7,28.6,0000.0,0009.36,0005.33,0004.92
2022-07-30 15:39:00,,0830.0,5.01,0.00,29.7,28.7,00.0,38.5,31.7,28.7,0000.0,0009.31,0005.34,0004.94
2022-07-30 15:40:00,,0830.0,4.99,0.00,29.8,28.7,00.0,38.5,31.7,29.1,0000.0,0009.30,0005.34,0004.95
2022-07-30 15:41:00,,0830.0,5.00,0.00,29.8,28.1,00.0,38.5,31.6,29.0,0000.0,0009.23,0005.35,0004.95
2022-07-30 15:42:00,,0829.9,5.00,0.00,29.7,27.5,00.0,38.5,31.4,29.2,0000.0,0009.46,0005.36,0004.96
2022-07-30 15:43:00,,0829.9,5.01,0.00,29.7,27.3,00.0,38.5,31.4,29.3,0000.0,0009.53,0005.39,0004.98
2022-07-30 15:44:00,,0829.9,4.99,0.00,29.6,27.4,00.0,38.4,31.3,29.4,0000.0,0008.74,0005.38,0005.00
2022-07-30 15:45:00,,0829.8,4.99,0.00,29.6,27.5,00.0,38.4,31.3,28.9,0000.0,0008.48,0005.38,0005.00
2022-07-30 15:46:00,,0829.9,5.00,0.00,29.6,27.7,00.0,38.4,31.3,29.4,0000.0,0008.47,0005.37,0004.99
2022-07-30 15:47:00,,0829.9,5.00,0.00,29.6,27.8,00.0,38.4,31.4,28.2,0000.0,0008.53,0005.39,0004.99
2022-07-30 15:48:00,,0829.8,5.01,0.00,29.6,28.0,00.0,38.4,31.4,27.3,0000.0,0008.51,0005.37,0004.98
2022-07-30 15:49:00,,0829.9,5.00,0.00,29.6,28.1,00.0,38.4,31.4,27.3,0000.0,0008.48,0005.35,0004.95
2022-07-30 15:50:00,,0829.9,4.99,0.00,29.6,28.3,00.0,38.4,31.5,27.7,0000.0,0008.60,0005.35,0004.94
2022-07-30 15:51:00,,0829.8,5.00,0.00,29.6,28.4,00.0,38.4,31.5,28.8,0000.0,0008.58,0005.33,0004.94
2022-07-30 15:52:00,,0829.8,5.01,0.00,29.6,28.5,00.0,38.4,31.6,29.7,0000.0,0008.51,0005.32,0004.95
2022-07-30 15:53:00,,0829.8,4.99,0.00,29.7,28.6,00.0,38.4,31.6,29.5,0000.0,0008.40,0005.32,0004.95
2022-07-30 15:54:00,,0829.9,5.01,0.00,29.7,28.6,00.0,38.5,31.7,29.2,0000.0,0008.87,0005.31,0004.95
2022-07-30 15:55:00,,0829.9,5.00,0.00,29.7,28.7,00.0,38.5,31.7,29.0,0000.0,0008.87,0005.31,0004.95
2022-07-30 15:56:00,,0829.8,5.01,0.00,29.7,28.5,00.0,38.5,31.7,29.1,0000.0,0009.06,0005.34,0004.97
2022-07-30 15:57:00,,0829.8,5.00,0.00,29.7,27.8,00.0,38.4,31.5,29.2,0000.0,0009.14,0005.35,0004.99
2022-07-30 15:58:00,,0829.9,5.00,0.00,29.7,27.5,00.0,38.4,31.4,29.2,0000.0,0009.09,0005.35,0005.01
2022-07-30 15:59:00,,0829.9,5.01,0.00,29.6,27.4,00.0,38.4,31.4,29.9,0000.0,0009.10,0005.34,0005.03
